Location: Newark
(7.0858°N, 171.3717°E)
Time: 15:05:34
(UTC+00:00)

Courier 1B Rocket - Pass Details

Date: 06 December 2020
Orbit: 920 x 1202 km, 28.2° (Epoch: 20 January)

Event Time Altitude Azimuth Distance (km) Brightness Sun altitude
Rises 16:37:40 0° 305° (NW) 3,980 - -27.6°
Reaches altitude 10° 16:42:12 10° 329° (NNW) 3,068 - -26.6°
Exits shadow 16:45:50 14° 358° (N) 2,804 7.2 -25.8°
Maximum altitude 16:45:54 14° 358° (N) 2,804 7.2 -25.7°
Drops below altitude 10° 16:49:38 10° 28° (NNE) 3,117 7.7 -24.9°
Sets 16:54:19 0° 52° (NE) 4,090 8.6 -23.8°
